Home   Weather   Longueuil   Past weeks

Flag for Canada Past Weather in Longueuil, Quebec, Canada — Yesterday and Last 2 Weeks

Now
34 °F

Chilly.


Feels Like: 27 °F
Forecast: 32 / 54 °F
Wind: 9 mph from Northeast

Location: Mc Tavish

Current Time: Feb 25, 2017 at 12:00:33 am

Latest Report: Feb 24, 2017 at 11:00 pm


Visibility: N/A

Pressure: 29.80 "Hg

Humidity: 97%

Dew Point: 33 °F

Location of LongueuilLocation

Past Weather in Longueuil — Graph

°F

Longueuil Temperature Yesterday

Maximum temperature yesterday: 42 °F (at 12:00 am)
Minimum temperature yesterday: 33 °F (at 9:00 pm)
Average temperature yesterday: 38 °F

High & Low Weather Summary for the Past Weeks

 TemperatureHumidityPressure
High54 °F (Feb 23, 3:00 pm)100% (Feb 12, 6:00 pm)30.42 "Hg (Feb 12, 6:00 pm)
Low2 °F (Feb 10, 8:00 am)43% (Feb 10, 9:00 pm)29.36 "Hg (Feb 18, 5:00 pm)
Average27 °F78%29.84 "Hg
* Reported Feb 9 11:00 pm — Feb 24 11:00 pm, Longueuil, Weather by CustomWeather, © 2017

Note: Actual official high and low records may vary slightly from our data, if they occured in-between our weather recording intervals... More about our weather records

Advertising

Longueuil Weather History for the Previous 24 Hours

Scroll right to see more
 ConditionsComfort  
Time TempWeatherWind HumidityBarometerVisibility
11:00 pm
Fri, Feb 24
34 °FChilly.9 mph97%29.80 "HgN/A
10:00 pm34 °FChilly.8 mph92%29.82 "HgN/A
9:00 pm33 °FChilly.9 mph96%29.81 "HgN/A
8:00 pm34 °FChilly.8 mph97%29.81 "HgN/A
7:00 pm34 °FChilly.7 mph97%29.83 "HgN/A
6:00 pm35 °FChilly.7 mph98%29.85 "HgN/A
5:00 pm35 °FChilly.6 mph98%29.85 "HgN/A
4:00 pm36 °FChilly.6 mph98%29.85 "HgN/A
3:00 pm36 °FChilly.6 mph96%29.88 "HgN/A
2:00 pm35 °FChilly.6 mph100%29.86 "HgN/A
1:00 pm38 °FChilly.7 mph90%29.87 "HgN/A
12:00 pm40 °FChilly.5 mph82%29.89 "HgN/A
11:00 am40 °FQuite cool.2 mph80%29.90 "HgN/A
10:00 am40 °FChilly.5 mph80%29.93 "HgN/A
9:00 am40 °FChilly.3 mph80%29.93 "HgN/A
8:00 am39 °FChilly.2 mph82%29.93 "HgN/A
7:00 am38 °FChilly.2 mph87%29.93 "HgN/A
6:00 am39 °FChilly.3 mph83%29.93 "HgN/A
5:00 am39 °FChilly.3 mph85%29.90 "HgN/A
4:00 am39 °FChilly.1 mph85%29.91 "HgN/A
3:00 am40 °FChilly.2 mph83%29.90 "HgN/A
2:00 am40 °FQuite cool.3 mph88%29.89 "HgN/A
1:00 am42 °FQuite cool.2 mph88%29.88 "HgN/A
12:00 am42 °FQuite cool.2 mph89%29.84 "HgN/A
Weather by CustomWeather, © 2017

See weather overviewHow to use our weather pages